Find Kuiper-00101

NORAD ID: 65947 Int'l Des: 2025-228 Owner: KUIP Country: US Constellation: amazon-leo operational
LEOCIRCULAR

当前视图

正在加载3D地球...

About Kuiper-00101

Kuiper-00101 (NORAD 65947) is a amazon-leo constellation satellite launched Oct 14, 2025 by KUIP of US. It operates in LEO, CIRCULAR orbit with a mass of 490.00 kg.

即将过境

Passes for default location (London). Set your location on the main map for personalized predictions.

高度历史

Loading altitude history...

两行轨道根数

1 65947U 25228A 26263.31615119 -.00010988 00000-0 -14135-2 0 9990
2 65947 51.9017 219.9026 0000399 58.8845 301.2157 14.79969621 52059
Epoch: Sep 20, 2026 • Age: 26 hours

当前状态

高度 634.4 km
远地点 / 近地点 N/A
速度 7.55 km/s
星下点 47.20°N, 172.92°W
发射日期 Oct 14, 2025
运行时间 0.9 years
类型 internet

技术详情

分类 Payload
质量 490.00 kg
形状 ? Box + 2 pan
制造商 KUIP
平台类型 Kuiper
阶段状态 In Orbit
所有者/国家 KUIP/US

Most Searched